[[{"header":{"parameterUnit":"m.s-1","parameterCategory":1,"la1":30.2991,"la2":30.254,"lo1":-89.0895,"lo2":-89.0444,"dy":0.0017,"dx":0.0017,"nx":28,"ny":28,"refTime":"2024-07-04T09:00:00:Z","depth":0,"parameterNumber":2,"parameterNumberName":"U-component_of_WINDS"},"data":[0,0,0,0,0,0,0,0,0,0,0,0,0,0,0,0,0,0,0,0,0,0,0,0,0,0,0,0,0,0,0,0,0,0,0,0,0,0,0,0,0,0,0,0,0,0,0,0,0,0,0,0,0,0,0,0,0,0,1.984,1.9841,0,2.0022,2.0025,2.0027,2.0081,2.008,2.0079,2.0078,2.0268,2.0273,2.0279,0,0,0,0,0,0,0,0,0,0,0,0,0,1.9539,1.9544,1.9839,1.9842,1.9844,2.0022,2.0025,2.0027,2.0081,2.008,2.0079,2.0077,2.0266,2.0273,2.028,0,0,0,0,0,0,0,0,0,0,0,0,0,1.969,1.9546,1.9839,1.9892,1.9899,2.0022,2.0025,2.0028,2.0081,2.008,2.0078,2.0077,2.0263,2.0272,2.0281,2.0365,0,0,2.0308,2.0312,0,0,0,0,0,0,0,0,1.9682,1.9701,1.9882,1.9889,1.9896,2.0027,1.9988,2.0141,2.0081,2.0012,2.0078,2.0076,2.0189,2.0204,2.0241,2.0373,2.0382,2.0309,2.0314,2.0318,2.0321,0,0,0,0,0,0,0,1.9671,1.9694,1.9912,1.9885,1.9893,1.9908,1.9928,2.0017,2.0106,2.0018,2.0022,2.0043,2.0193,2.0233,2.0246,2.0384,2.0309,2.0316,2.0322,2.0325,2.0595,2.0596,0,0,0,0,0,0,1.9651,1.9685,1.9906,1.9917,1.9783,1.9914,1.9937,1.9987,2.0105,2.0122,2.0044,2.0045,2.0218,2.0236,2.0253,2.0359,2.0318,2.0326,2.0331,2.0593,2.0595,2.0597,0,0,0,0,0,0,1.9644,1.967,1.9899,1.9802,1.9832,1.9921,1.9977,1.9991,2.0031,2.0125,2.0142,2.0069,2.0218,2.0241,2.0336,2.0366,2.033,2.0338,2.0591,2.0594,2.0596,2.0571,0,0,0,0,0,0,1.9636,1.9668,1.97,1.9803,1.9837,1.9978,1.9979,1.9996,2.0046,2.0049,2.0153,2.0168,2.0218,2.0323,2.0345,2.0378,2.0345,2.0588,2.0592,2.0595,2.057,2.0572,2.0575,0,0,0,0,0,1.9625,1.9686,1.9701,1.9728,1.9879,1.998,2.0,2.0055,2.0048,2.0082,2.0142,2.0165,2.0359,2.0332,2.0358,2.0394,2.0587,2.0591,2.0595,2.0568,2.0572,2.0575,0,0,0,0,0,0,1.9585,1.97,1.9718,1.9815,1.9887,1.9988,2.0032,2.0057,2.0133,2.0133,2.0199,2.0222,2.0313,2.0363,2.0331,2.0481,2.0474,2.0483,2.0445,2.0449,2.0452,2.0438,2.0353,0,0,0,0,0,1.9587,1.9658,1.9756,1.9831,1.9867,1.9943,1.9989,2.0025,2.0103,2.0134,2.0202,2.0277,2.0355,2.0405,2.0482,2.0577,2.0601,2.0615,2.0617,2.0619,2.0626,2.0681,2.0688,2.061,2.061,2.061,0,0,1.9593,1.9665,1.9706,1.9825,1.9885,1.9958,1.9968,2.0045,2.01,2.0146,2.024,2.0292,2.0381,2.0476,2.0522,2.0521,2.0653,2.0624,2.0625,2.0632,2.0685,2.0693,2.0699,2.0613,2.0613,2.0612,0,0,1.964,1.9702,1.9771,1.9832,1.9922,1.9973,1.9989,2.0088,2.0124,2.0219,2.0256,2.0322,2.0455,2.0517,2.0565,2.0636,2.066,2.066,2.0674,2.0726,2.0732,2.0738,2.0763,2.0771,2.0667,2.0667,2.0667,0,1.9636,1.9746,1.9804,1.9879,1.993,1.9975,2.0046,2.0102,2.0214,2.0249,2.0246,2.0414,2.0476,2.0587,2.0604,2.0642,2.0664,2.0648,2.0726,2.0733,2.0739,2.0764,2.0773,2.0666,2.0666,2.0666,2.0666,0,1.9737,1.9813,1.9858,1.9964,2.0021,2.0093,2.0163,2.0213,2.0245,2.0296,2.0393,2.047,2.0563,2.0592,2.0625,2.0708,2.0704,2.0713,2.0707,2.0745,2.0769,2.0779,2.0665,2.0665,2.0666,2.0666,0,0,1.9764,1.99,1.9916,1.9965,2.0068,2.0129,2.0204,2.0294,2.0336,2.0412,2.0477,2.0588,2.0597,2.0652,2.0692,2.0738,2.0789,2.0741,2.0744,2.0747,2.0885,2.0877,2.0887,2.0805,2.0807,2.0809,2.0877,0,1.9824,1.9958,2.0013,2.0122,2.0193,2.0237,2.0303,2.0373,2.0423,2.0492,2.0547,2.0625,2.0631,2.0664,2.0712,2.0772,2.0817,2.0768,2.0866,2.0869,2.0842,2.09,2.0892,2.0953,2.0887,2.0889,2.089,0,1.9912,1.9987,2.0103,2.0198,2.023,2.0288,2.0375,2.044,2.0522,2.0555,2.0616,2.0653,2.0734,2.0723,2.0836,2.0801,2.0845,2.0881,2.0885,2.0896,2.0881,2.0912,2.0974,2.0982,2.0906,2.0905,2.0903,0,1.9919,2.005,2.0136,2.0177,2.029,2.0329,2.0378,2.0459,2.051,2.0587,2.0621,2.0706,2.0753,2.0818,2.0878,2.0864,2.0985,2.0979,2.1015,2.1013,2.1038,2.1035,2.1107,2.1066,2.1066,2.1066,2.1066,0,1.998,2.0049,2.0141,2.0194,2.0273,2.0336,2.0412,2.0465,2.0536,2.06,2.0644,2.0704,2.0779,2.0848,2.0896,2.0982,2.1003,2.1032,2.1044,2.1028,2.1024,2.1057,2.1054,2.1069,2.1068,2.1068,2.1067,0,2.0001,2.0065,2.0162,2.0262,2.0288,2.0342,2.0427,2.0481,2.0533,2.0614,2.0637,2.0719,2.0803,2.0869,2.0979,2.101,2.1101,2.1114,2.1073,2.1079,2.1111,2.1106,2.1205,2.1221,2.117,2.1171,2.1171,0,2.0035,2.0089,2.0194,2.024,2.0289,2.0363,2.0415,2.0479,2.0531,2.0629,2.067,2.0758,2.083,2.0963,2.1033,2.1117,2.1132,2.1161,2.1145,2.1128,2.1132,2.1128,2.1134,2.1163,2.1163,2.1163,2.1163,0,2.0089,2.0118,2.0191,2.0276,2.0337,2.0407,2.0477,2.0513,2.059,2.0647,2.0733,2.0789,2.0901,2.0987,2.1079,2.1131,2.116,2.1168,2.1181,2.1165,2.1138,2.1153,2.1077,2.1165,2.1165,2.1165,2.1165,2.1165,2.0118,2.0168,2.025,2.033,2.039,2.0455,2.051,2.0569,2.0641,2.0737,2.0771,2.0859,2.094,2.1066,2.1118,2.1189,2.1191,2.1209,2.1214,2.1217,2.1215,2.1127,2.1206,2.1206,2.1206,2.1206,2.1206,0,2.0174,2.0228,2.0302,2.0399,2.0462,2.0484,2.0563,2.0615,2.0692,2.0765,2.0836,2.0935,2.1018,2.1095,2.1182,2.1224,2.124,2.1245,2.1242,2.1254,2.1209,2.1189,2.1231,2.1231,2.1231,2.1231,2.1231,2.1231,2.021,2.0296,2.0335,2.0451,2.0506,2.0593,2.0636,2.0697,2.0755,2.0863,2.0933,2.0982,2.1057,2.115,2.1228,2.1248,2.1278,2.128,2.1303,2.126,2.1257,2.1254,2.1235,2.1286,2.1286,2.1342,2.1343,2.1343]},{"header":{"parameterUnit":"m.s-1","parameterCategory":1,"la1":30.2991,"la2":30.254,"lo1":-89.0895,"lo2":-89.0444,"dy":0.0017,"dx":0.0017,"nx":28,"ny":28,"refTime":"2024-07-04T09:00:00:Z","depth":0,"parameterNumber":3,"parameterNumberName":"V-component_of_WINDS"},"data":[0,0,0,0,0,0,0,0,0,0,0,0,0,0,0,0,0,0,0,0,0,0,0,0,0,0,0,0,0,0,0,0,0,0,0,0,0,0,0,0,0,0,0,0,0,0,0,0,0,0,0,0,0,0,0,0,0,0,5.2954,5.2954,0,5.3004,5.3005,5.3005,5.2954,5.2952,5.295,5.2948,5.2993,5.2996,5.2999,0,0,0,0,0,0,0,0,0,0,0,0,0,5.2806,5.2809,5.2954,5.2954,5.2955,5.3004,5.3005,5.3005,5.2954,5.2952,5.2949,5.2947,5.2992,5.2996,5.2999,0,0,0,0,0,0,0,0,0,0,0,0,0,5.2864,5.281,5.2954,5.2936,5.2934,5.3004,5.3005,5.3006,5.2955,5.2952,5.2949,5.2946,5.2991,5.2995,5.3,5.3087,0,0,5.3014,5.3016,0,0,0,0,0,0,0,0,5.2861,5.287,5.2938,5.2937,5.2936,5.297,5.2969,5.3033,5.2956,5.2947,5.2948,5.2945,5.2987,5.2992,5.3008,5.3089,5.3091,5.3014,5.3017,5.3019,5.302,0,0,0,0,0,0,0,5.2857,5.2867,5.2973,5.2939,5.2938,5.2922,5.2927,5.2981,5.2983,5.2947,5.2944,5.2951,5.2986,5.3003,5.3008,5.3092,5.3014,5.3018,5.3021,5.3023,5.3247,5.325,0,0,0,0,0,0,5.2856,5.2864,5.2972,5.2975,5.2891,5.2928,5.2933,5.2962,5.2982,5.2983,5.2953,5.2948,5.2997,5.3003,5.301,5.3114,5.3019,5.3023,5.3026,5.3244,5.3248,5.3252,0,0,0,0,0,0,5.2853,5.2866,5.297,5.2919,5.2931,5.2933,5.2966,5.2964,5.2982,5.2987,5.2986,5.2971,5.2995,5.3003,5.3069,5.3114,5.3025,5.3029,5.324,5.3245,5.325,5.3322,0,0,0,0,0,0,5.2849,5.2865,5.29,5.292,5.2934,5.303,5.2969,5.2967,5.2991,5.2984,5.3003,5.3004,5.2993,5.3062,5.3073,5.3119,5.3033,5.3236,5.3243,5.3248,5.3316,5.3329,5.334,0,0,0,0,0,5.2844,5.2917,5.2902,5.2916,5.2978,5.3033,5.3041,5.3029,5.2994,5.3029,5.3032,5.3003,5.3108,5.3069,5.3081,5.3129,5.3233,5.3241,5.3248,5.331,5.3326,5.334,0,0,0,0,0,0,5.29,5.2919,5.2903,5.2986,5.3009,5.3024,5.3067,5.3047,5.3078,5.3071,5.3053,5.3058,5.3127,5.3134,5.3092,5.3215,5.3164,5.3174,5.3208,5.3223,5.3235,5.3232,5.3037,0,0,0,0,0,5.2923,5.2969,5.2982,5.3053,5.3066,5.3065,5.3088,5.3078,5.3099,5.3108,5.3116,5.3136,5.3174,5.3199,5.3233,5.3316,5.3319,5.3355,5.3367,5.3377,5.3386,5.343,5.3446,5.3275,5.3275,5.3275,0,0,5.2969,5.2985,5.3014,5.3065,5.3081,5.3127,5.3073,5.3123,5.3156,5.3115,5.3178,5.3185,5.3206,5.3281,5.3314,5.3289,5.3434,5.3386,5.3394,5.3398,5.3439,5.3455,5.3469,5.328,5.3279,5.3279,0,0,5.3076,5.3094,5.3155,5.3173,5.32,5.3199,5.3213,5.3233,5.3236,5.33,5.327,5.3307,5.3372,5.3389,5.3406,5.3519,5.3494,5.3531,5.3595,5.3638,5.3651,5.3663,5.3703,5.3718,5.354,5.354,5.354,0,5.313,5.32,5.3189,5.3242,5.3264,5.3231,5.3292,5.3309,5.3345,5.336,5.3332,5.3413,5.3425,5.3503,5.3531,5.3546,5.356,5.3529,5.3651,5.3662,5.3673,5.3711,5.3727,5.3544,5.3544,5.3543,5.3543,0,5.3264,5.3312,5.3358,5.3396,5.3424,5.348,5.3476,5.3504,5.3491,5.3492,5.3556,5.357,5.3607,5.3624,5.3611,5.37,5.3684,5.3654,5.3603,5.3694,5.373,5.3744,5.355,5.3549,5.3548,5.3546,0,0,5.3408,5.344,5.3457,5.3474,5.3501,5.3537,5.3591,5.3629,5.3654,5.3679,5.3723,5.3779,5.3751,5.377,5.3758,5.3796,5.3885,5.3761,5.3761,5.3784,5.3984,5.4007,5.4024,5.3869,5.3871,5.3873,5.3982,0,5.3516,5.3614,5.3605,5.3696,5.374,5.371,5.3757,5.3777,5.3779,5.3815,5.3816,5.3857,5.3817,5.3828,5.3865,5.3867,5.3925,5.3859,5.3908,5.391,5.3904,5.4043,5.4067,5.4169,5.3996,5.3998,5.4,0,5.3656,5.3689,5.3785,5.3806,5.3824,5.3867,5.3901,5.3936,5.3958,5.3956,5.3979,5.396,5.4012,5.3961,5.4032,5.3987,5.4006,5.401,5.4014,5.4018,5.3961,5.405,5.4201,5.4217,5.4022,5.402,5.4018,0,5.3752,5.382,5.3886,5.3901,5.3927,5.3957,5.3969,5.3988,5.4011,5.404,5.4055,5.4089,5.4108,5.4133,5.4124,5.4087,5.4197,5.4144,5.4196,5.4196,5.422,5.4219,5.4377,5.4233,5.4233,5.4232,5.4232,0,5.3874,5.3934,5.393,5.3971,5.4037,5.4025,5.409,5.4097,5.4114,5.4154,5.4128,5.4166,5.4151,5.4187,5.418,5.4239,5.4248,5.4247,5.4244,5.425,5.425,5.4262,5.4255,5.4236,5.4235,5.4235,5.4234,0,5.3992,5.3992,5.4062,5.4081,5.4087,5.4135,5.4149,5.4187,5.4187,5.4238,5.4249,5.425,5.4291,5.4284,5.4329,5.4324,5.4399,5.4387,5.4392,5.439,5.4442,5.4437,5.4613,5.4635,5.4477,5.4479,5.448,0,5.407,5.4116,5.414,5.4167,5.4181,5.4223,5.4248,5.4237,5.4263,5.4292,5.4325,5.4365,5.4396,5.4463,5.4465,5.4499,5.4488,5.4548,5.4493,5.4497,5.4489,5.4487,5.4491,5.4558,5.456,5.4562,5.4563,0,5.4208,5.4206,5.4244,5.4282,5.4313,5.4341,5.4367,5.4389,5.4381,5.4411,5.4455,5.4479,5.4526,5.4565,5.4597,5.4606,5.4583,5.458,5.4594,5.46,5.4601,5.4601,5.4422,5.4576,5.4575,5.4574,5.4573,5.4572,5.4308,5.4348,5.4372,5.4414,5.4433,5.4458,5.4494,5.45,5.4537,5.4576,5.4567,5.4616,5.4634,5.4676,5.4688,5.4725,5.4702,5.4722,5.4727,5.4733,5.4739,5.4595,5.473,5.473,5.4729,5.4729,5.4729,0,5.4445,5.4459,5.4499,5.4537,5.4571,5.4548,5.4575,5.4604,5.4648,5.4669,5.4701,5.475,5.4788,5.4794,5.4829,5.4857,5.4847,5.4867,5.4864,5.4867,5.4757,5.4742,5.4874,5.4874,5.4874,5.4874,5.4874,5.4874,5.4521,5.4586,5.4587,5.4661,5.4674,5.4723,5.4741,5.4763,5.478,5.4837,5.4869,5.4873,5.4888,5.4924,5.4957,5.4958,5.4972,5.4995,5.4992,5.4889,5.4874,5.4861,5.4846,5.4998,5.4999,5.5099,5.51,5.51]}]]